TITAN 3C TRANSTAGE DEB, 43454

Orbit data source: Space-Track

TITAN 3C TRANSTAGE DEB, 43454 is space debris in GEO originally from a launch on Sun, 09 Feb 1969 UTC launched from the Air Force Eastern Test Range (AFETR). Debris objects in space refer to the collection of defunct objects orbiting the Earth. Examples of debris include non-operational satellites, rocket bodies, and fragments generated from explosions, collisions, or faulty payload assembly.

Not visible in the next 10 days
TITAN 3C TRANSTAGE DEB details
Identifier
43454, 1969-013M
Orbit
GEO
Last TLE update1 day ago
Origin
Flag of USUSAF SMC (US)
ManufacturerMartin Marietta
MissionSpacecraft
Bus & MotorUnknown
MassUnknown
Launch date (UTC)
1969-02-09 (56 years ago)
Launch vehicleUnknown
Launch site
Air Force Eastern Test Range (AFETR)
Object type
Payload
Rocket body
Debris
Shape & HBRUnknown
Radar Cross SectionRCS unknown

Expand to show TLE details & history

TLE from 1 day ago
0 TITAN 3C TRANSTAGE DEB
1 43454U 69013M   25017.62728084 -.00000051  00000-0  00000-0 0  9998
2 43454   0.8400 213.9423 0556438 250.2503 262.0448  1.02844594 25321
Epoch: 2025-01-17T15:03Z
Definitive object data (Epoch: 2025-01-17T15:03:17.064Z)
Latitude0.4503°
Longitude16.89337°
Altitude35,529.16 km
Speed3.067 km/s
True Right ascension00h 00m 00s
True Declination0° 26' 59"
Sunlit
Object was in daylight at TLE epoch
Visualization TLE readout
Latitude-0.52794°
Longitude-169.84489°
Altitude34,137.213 km
Speed3.172 km/s
Apparent Right ascension11h 46m 40s
Apparent Declination-5° 40' 34"
Sunlit
Object is in daylight
Visualization observer readout
Local Sidereal Time01:44:17
Azimuth45.483° ENE
Elevation-46.749°
Doppler factor1
Orbital elements
Apogee altitude37,388.486 km
Perigee altitude32,774.541 km
Semi-major axis41,459.651 km
Eccentricity0.0556438
Inclination0.84°
RAAN213.9423°
Arg. of periapsis250.2503°
True anomaly255.80244°
Mean anomaly262.0448°
Eccentric anomaly258.91611°
Mean motion0.2571 °/min
BSTARUnknown
Orbital period1400.22 mins
Loading historical data...
43454 neighbors
Authenticating...
Loading maneuver chart data...

TITAN 3C TRANSTAGE DEB Visibility forecast

Observer location: undefined°, undefined

TITAN 3C TRANSTAGE DEB is not visible in the next 10 days
Span
Click to sort rows by Start time (UTC) header in descending order
Start Az.
Max El. time (UTC)
Max El. Az.
Max El.
End time (UTC)
End Az.
|